Location: Ellingshausen
(50.5460°N, 10.4723°E)
Time: 06:09:50
(UTC+00:00)

ATLAS 2AS CENTAUR R/B - Pass Details

Date: 18 January 2026
Orbit: 1050 x 1161 km, 63.7° (Epoch: 18 February)

Event Time Altitude Azimuth Distance (km) Brightness Sun altitude
Exits shadow 03:16:42 44° 33° (NNE) 1,416 3.5 -36.5°
Drops below altitude 10° 03:23:02 10° 103° (ESE) 2,866 5.6 -35.5°
Sets 03:25:48 0° 110° (ESE) 3,822 6.4 -35.1°
